Total_Precipitation_Accumulation
0.52 0.43 0.55 0.61 0.55 0.61 0.85 0.83 0.74 0.41 0.34 0.37 0.38 0.39 0.41 0.44 0.44 0.45 0.50 0.56 0.57 0.58 0.63 0.67 0.64 0.68 0.79 0.91 0.94 0.94 0.99 1.15 1.34 1.45 1.62 1.70 1.70 1.69 1.71 1.73 1.63 1.60 1.56 1.50
0.58 0.32 0.43 0.51 0.42 0.43 0.49 0.46 0.45 0.31 0.30 0.27 0.32 0.35 0.38 0.43 0.47 0.49 0.55 0.59 0.58 0.57 0.57 0.61 0.64 0.68 0.74 0.82 0.87 0.93 0.99 1.04 1.23 1.44 1.58 1.67 1.68 1.71 1.72 1.73 1.70 1.62 1.56 1.51
0.99 0.46 0.77 0.91 0.56 0.50 0.50 0.46 0.47 0.51 0.44 0.30 0.30 0.35 0.45 0.50 0.52 0.55 0.60 0.63 0.60 0.58 0.58 0.62 0.64 0.67 0.73 0.78 0.83 0.87 0.89 0.92 1.06 1.26 1.44 1.57 1.63 1.70 1.82 1.81 1.74 1.68 1.57 1.49
1.53 1.14 1.51 0.84 0.45 0.43 0.51 0.55 0.53 0.52 0.45 0.41 0.41 0.42 0.46 0.56 0.62 0.59 0.62 0.64 0.62 0.62 0.62 0.64 0.64 0.65 0.73 0.75 0.74 0.78 0.80 0.80 0.87 1.02 1.20 1.39 1.56 1.63 1.73 1.83 1.81 1.71 1.61 1.51
2.08 1.64 0.98 0.47 0.40 0.55 0.63 0.64 0.57 0.51 0.42 0.38 0.36 0.36 0.40 0.51 0.65 0.73 0.73 0.67 0.63 0.61 0.59 0.59 0.63 0.67 0.67 0.70 0.74 0.74 0.76 0.78 0.80 0.88 1.01 1.18 1.35 1.48 1.60 1.71 1.75 1.70 1.61 1.45
2.26 1.78 0.96 0.53 0.36 0.39 0.55 0.74 0.51 0.49 0.50 0.46 0.45 0.51 0.51 0.53 0.62 0.70 0.68 0.65 0.63 0.58 0.55 0.57 0.62 0.66 0.67 0.70 0.73 0.77 0.78 0.80 0.80 0.84 0.90 1.02 1.18 1.33 1.49 1.59 1.66 1.64 1.61 1.45
1.78 1.54 0.80 0.47 0.35 0.35 0.76 0.86 0.51 0.51 0.57 0.56 0.62 0.65 0.58 0.52 0.53 0.59 0.60 0.59 0.58 0.55 0.54 0.59 0.62 0.65 0.70 0.70 0.74 0.76 0.76 0.77 0.78 0.79 0.82 0.90 1.06 1.21 1.37 1.48 1.57 1.56 1.50 1.45
1.19 1.46 0.91 0.48 0.43 0.69 0.86 0.57 0.51 0.51 0.53 0.56 0.54 0.51 0.50 0.49 0.49 0.48 0.51 0.51 0.53 0.54 0.56 0.58 0.59 0.64 0.72 0.72 0.71 0.69 0.69 0.70 0.72 0.73 0.76 0.84 0.98 1.11 1.23 1.38 1.50 1.51 1.43 1.46
0.90 0.86 0.64 0.56 0.66 0.69 0.63 0.59 0.51 0.52 0.49 0.52 0.54 0.53 0.50 0.47 0.46 0.46 0.48 0.48 0.49 0.53 0.55 0.56 0.57 0.61 0.72 0.73 0.69 0.65 0.65 0.67 0.69 0.71 0.74 0.78 0.85 1.00 1.20 1.29 1.40 1.47 1.37 1.37
0.67 0.52 0.43 0.42 0.44 0.48 0.52 0.55 0.51 0.52 0.54 0.53 0.55 0.53 0.48 0.43 0.42 0.42 0.45 0.47 0.46 0.48 0.52 0.57 0.60 0.62 0.66 0.69 0.68 0.61 0.63 0.67 0.66 0.70 0.76 0.74 0.78 0.88 1.08 1.24 1.34 1.43 1.35 1.28
0.57 0.43 0.36 0.33 0.34 0.38 0.40 0.40 0.39 0.42 0.48 0.52 0.51 0.47 0.43 0.41 0.39 0.40 0.45 0.47 0.46 0.48 0.52 0.61 0.67 0.64 0.60 0.62 0.64 0.62 0.62 0.67 0.67 0.67 0.72 0.76 0.82 0.90 1.00 1.15 1.38 1.60 1.50 1.40
0.58 0.44 0.50 0.42 0.33 0.33 0.35 0.35 0.37 0.39 0.41 0.42 0.43 0.42 0.36 0.37 0.38 0.40 0.42 0.42 0.43 0.44 0.48 0.56 0.62 0.62 0.58 0.59 0.61 0.63 0.64 0.64 0.67 0.70 0.71 0.72 0.81 0.94 1.07 1.13 1.24 1.28 1.40 1.49
0.48 0.40 0.41 0.38 0.33 0.32 0.33 0.31 0.33 0.36 0.39 0.41 0.38 0.36 0.34 0.35 0.37 0.40 0.42 0.40 0.41 0.42 0.46 0.52 0.57 0.58 0.57 0.60 0.64 0.67 0.68 0.67 0.69 0.71 0.69 0.70 0.76 0.88 1.05 1.12 1.18 1.21 1.26 1.38
0.33 0.34 0.36 0.33 0.35 0.31 0.30 0.28 0.29 0.31 0.34 0.35 0.37 0.36 0.34 0.34 0.35 0.40 0.44 0.44 0.42 0.40 0.43 0.47 0.53 0.59 0.58 0.59 0.64 0.67 0.69 0.73 0.76 0.73 0.72 0.75 0.82 0.91 1.01 1.12 1.19 1.23 1.29 1.41
0.28 0.33 0.38 0.33 0.29 0.27 0.28 0.29 0.29 0.32 0.32 0.34 0.35 0.39 0.39 0.38 0.38 0.42 0.47 0.47 0.44 0.42 0.42 0.43 0.49 0.58 0.59 0.59 0.64 0.67 0.68 0.71 0.77 0.80 0.78 0.80 0.85 0.94 1.03 1.11 1.16 1.23 1.30 1.49
0.28 0.27 0.29 0.28 0.29 0.28 0.28 0.30 0.31 0.35 0.36 0.36 0.38 0.42 0.45 0.44 0.43 0.46 0.49 0.47 0.47 0.45 0.43 0.42 0.46 0.53 0.59 0.63 0.66 0.66 0.67 0.76 0.83 0.84 0.83 0.84 0.89 0.97 1.05 1.13 1.17 1.22 1.29 1.41
0.40 0.35 0.32 0.32 0.31 0.30 0.32 0.34 0.36 0.38 0.40 0.41 0.44 0.47 0.48 0.45 0.43 0.45 0.47 0.46 0.48 0.48 0.46 0.45 0.46 0.50 0.56 0.60 0.65 0.68 0.70 0.73 0.81 0.83 0.83 0.87 0.93 1.01 1.08 1.16 1.18 1.19 1.23 1.33
0.44 0.43 0.42 0.43 0.42 0.38 0.34 0.34 0.35 0.37 0.41 0.45 0.47 0.49 0.51 0.48 0.45 0.45 0.48 0.48 0.50 0.51 0.47 0.44 0.46 0.52 0.54 0.57 0.64 0.68 0.73 0.76 0.78 0.80 0.86 0.94 1.01 1.05 1.12 1.18 1.17 1.17 1.20 1.29
0.36 0.36 0.37 0.38 0.40 0.42 0.39 0.35 0.34 0.35 0.38 0.41 0.47 0.51 0.51 0.49 0.48 0.49 0.50 0.50 0.52 0.54 0.52 0.49 0.53 0.53 0.53 0.60 0.72 0.71 0.76 0.81 0.84 0.84 0.87 0.99 1.05 1.02 1.08 1.15 1.18 1.17 1.17 1.19
0.32 0.32 0.34 0.35 0.35 0.39 0.39 0.35 0.32 0.33 0.35 0.40 0.45 0.47 0.49 0.50 0.49 0.50 0.50 0.51 0.57 0.62 0.60 0.60 0.58 0.58 0.60 0.67 0.76 0.75 0.80 0.84 0.91 0.94 0.95 0.96 1.01 1.04 1.07 1.13 1.19 1.18 1.14 1.14
0.34 0.35 0.36 0.36 0.35 0.35 0.37 0.38 0.36 0.37 0.37 0.40 0.46 0.50 0.53 0.54 0.51 0.49 0.51 0.55 0.57 0.60 0.62 0.63 0.63 0.69 0.76 0.81 0.83 0.80 0.83 0.88 0.95 1.01 1.03 1.04 1.05 1.06 1.08 1.13 1.18 1.16 1.14 1.13
0.40 0.41 0.40 0.40 0.38 0.37 0.38 0.40 0.42 0.43 0.41 0.41 0.44 0.49 0.53 0.53 0.48 0.46 0.48 0.58 0.63 0.67 0.65 0.62 0.69 0.83 0.91 0.92 0.84 0.81 0.84 0.88 0.97 1.02 1.04 1.08 1.11 1.13 1.12 1.13 1.17 1.14 1.12 1.13
0.49 0.48 0.47 0.46 0.45 0.46 0.43 0.43 0.47 0.50 0.50 0.49 0.52 0.55 0.56 0.55 0.52 0.55 0.57 0.58 0.64 0.71 0.71 0.72 0.84 0.95 0.98 0.92 0.87 0.86 0.88 0.92 0.98 1.04 1.07 1.10 1.12 1.13 1.14 1.14 1.13 1.14 1.15 1.16
0.52 0.52 0.52 0.50 0.46 0.46 0.49 0.51 0.52 0.54 0.56 0.58 0.59 0.61 0.64 0.62 0.57 0.57 0.66 0.71 0.74 0.79 0.78 0.83 0.93 1.00 1.01 0.94 0.91 0.93 0.98 1.00 1.04 1.11 1.10 1.11 1.13 1.13 1.12 1.13 1.14 1.12 1.11 1.13
0.54 0.54 0.52 0.50 0.50 0.53 0.59 0.60 0.59 0.58 0.58 0.60 0.60 0.60 0.64 0.69 0.73 0.70 0.71 0.76 0.78 0.80 0.78 0.81 0.90 0.97 0.96 0.96 0.95 0.98 1.03 1.08 1.19 1.26 1.20 1.16 1.14 1.14 1.12 1.12 1.12 1.10 1.10 1.12
0.57 0.59 0.61 0.63 0.66 0.68 0.70 0.68 0.68 0.66 0.65 0.64 0.63 0.65 0.67 0.70 0.73 0.74 0.78 0.78 0.79 0.81 0.79 0.79 0.83 0.90 0.96 0.99 0.99 1.00 1.06 1.14 1.23 1.24 1.16 1.14 1.12 1.13 1.13 1.12 1.08 1.07 1.09 1.11
0.57 0.59 0.61 0.62 0.64 0.70 0.75 0.77 0.77 0.78 0.75 0.75 0.75 0.73 0.74 0.75 0.77 0.77 0.78 0.77 0.77 0.79 0.83 0.86 0.90 0.97 1.05 1.06 1.06 1.06 1.11 1.15 1.17 1.20 1.18 1.16 1.14 1.13 1.11 1.10 1.09 1.10 1.11 1.09